Regional Weather Roundup
Issued by NWS Wakefield, VA

Home | Current Version | Previous Version | Graphics & Text | Print | Product List | Glossary On
Versions: 1 2 3 4 5 6 7 8 9 10 11 12 13 14 15 16 17 18 19 20 21 22 23 24 25 26 27 28 29 30 31 32 33 34 35 36 37 38 39 40 41 42 43 44 45 46 47 48 49
356
ASUS41 KAKQ 071314
RWRAKQ

REGIONAL WEATHER ROUNDUP
NATIONAL WEATHER SERVICE WAKEFIELD VA
800 AM EST SUN FEB 07 2016

Note: "fair" indicates few or no clouds below 12,000 feet with no
significant weather and/or obstructions to visibility. * = Denotes
station may not report precipitation (e.g., rain,snow,etc.),
thunder or fog.

VAZ042-051-052>054-056-071400-
NORTHERN VIRGINIA

CITY           SKY/WX    TMP DP  RH WIND       PRES   REMARKS
WASH NATIONAL  MOCLDY    32  25  75 N5        30.21S
DULLES         MOCLDY    24  21  88 W3        30.19S
FORT BELVOIR   FAIR      26  24  90 CALM      30.20S
QUANTICO       FAIR      31  25  78 CALM      30.20S
FREDERICKSBRG* FAIR      28  27  94 CALM      30.17F
STAFFORD*      FAIR      26  24  89 CALM      30.22S
WARRENTON      FAIR      25  25  97 CALM      30.17S
CULPEPER*      FAIR      24  21  90 CALM      30.18F
MANASSAS*      CLEAR     21  19  93 CALM      30.20S
LEESBURG*      FAIR      27  23  86 CALM      30.20S
WINCHESTER     FAIR      27  21  80 CALM      30.16F
FRONT ROYAL*   FAIR      25  23  93 CALM      30.16S
LURAY*         FAIR      25  23  93 CALM      30.16S
$$

VAZ048-049-060>072-079>083-071400-
CENTRAL AND SOUTH CENTRAL VIRGINIA

CITY           SKY/WX    TMP DP  RH WIND       PRES   REMARKS
RICHMOND       MOCLDY    32  27  81 N6        30.14F
CHESTERFIELD*  FAIR      32  16  51 N3        30.14F
PETERSBURG*    FAIR      34  27  74 N3        30.13F
HANOVER        FAIR      31  26  82 CALM      30.16F
TAPPAHANNOCK*  FAIR      31  29  95 CALM      30.17F
QUINTON*       FAIR      32  28  83 CALM      30.15F
CHARLOTTSVILLE FAIR      27  21  78 CALM      30.15S
GORDONSVILLE*  FAIR      27  25  91 CALM      30.14F
ORANGE*        FAIR      30  27  86 CALM      30.17F
LOUISA*        FAIR      32  21  64 N7        30.13F
BUMPASS*       FAIR      29  26  86 CALM      30.15F
FARMVILLE*     FAIR      31  27  86 N3        30.12F
CREWE*         FAIR      32  25  75 N5        30.11F
FORT PICKETT*  FAIR      32  26  76 N7        30.10F
CHASE CITY*    FAIR      33  23  64 N5        30.11F
CLARKSVILLE*   FAIR      34  27  75 N6        30.10F
SOUTH HILL*    FAIR      32  28  83 N8        30.16F
LAWRENCEVILLE* FAIR      33  28  80 CALM      30.11S
EMPORIA*       FAIR      34  28  80 N3        30.14R
$$

VAZ088>098-071400-
SOUTHEAST VIRGINIA

CITY           SKY/WX    TMP DP  RH WIND       PRES   REMARKS
NORFOLK        FAIR      40  30  67 NE15      30.12S
VIRGINIA BEACH CLOUDY    44  28  53 NE17      30.11F
NORFOLK NAVAL  CLOUDY    40  27  59 NE15      30.13F
WEST POINT*    FAIR      32  27  82 CALM      30.16F
SALUDA*        FAIR      34  28  80 N3        30.16F
NEWPORT NEWS   CLOUDY    35  32  88 NE6       30.14S
LANGLEY AFB    MOCLDY    37  31  76 NE10      30.12F
FORT EUSTIS    CLOUDY    36  27  70 N3        30.12F
WILLIAMSBURG*  MOCLDY    36  34  93 NE3       30.16S
HR EXEC AP*    PTSUNNY   37  27  65 NE6       30.13F
FRANKLIN*      CLOUDY    34  29  82 N6        30.12S
US460-WAKEFLD  CLOUDY    35  28  75 NE3       30.13F
$$

VAZ020-022-025-037-045-071400-
WEST CENTRAL AND SOUTHWEST VIRGINIA

CITY           SKY/WX    TMP DP  RH WIND       PRES   REMARKS
STAUNTON*      FAIR      26  22  85 CALM      30.17R
WAYNESBORO*    FAIR      23  19  85 CALM      30.13F
HOT SPRINGS VA FAIR      29  19  66 NW10      30.02F WCI  19
LYNCHBURG      FAIR      31  20  63 N6        30.13F
DANVILLE       FAIR      34  24  67 N5        30.10F
SOUTH BOSTON*  FAIR      32  24  71 NW3       30.12S
MARTINSVILLE   FAIR      26  22  85 CALM      30.13F
ROANOKE        MOCLDY    29  20  69 N3        30.14F
BLACKSBURG     FAIR      24  22  91 CALM      30.13F
DUBLIN*        FAIR      26  22  84 CALM      30.12S
MARION*        FAIR      24  19  78 NW3       30.14R
HILLSVILLE*    FAIR      28  19  70 N8        30.06F
RICHLANDS*     FAIR      27  17  64 NW5       30.10F
WISE*          FAIR      30  18  59 CALM      30.12F
ABINGDON*      FAIR      25  19  77 CALM      30.13S
$$

MDZ021>025-VAZ099-100-071400-
SOUTHERN MARYLAND AND THE DELMARVA PENINSULA

CITY           SKY/WX    TMP DP  RH WIND       PRES   REMARKS
PATUXENT RIVER MOCLDY    29  26  89 CALM      30.18S
BAY BRIDGE APT   N/A     30  28  93 CALM      30.20S
LEONARDTOWN    CLOUDY    30  28  93 CALM      30.19S
DOVER          PTCLDY    27  27 100 NW6       30.18F
GEORGETOWN     PTCLDY    27  25  92 CALM      30.19F
EASTON         PTCLDY    30  30 100 CALM      30.23R
CAMBRIDGE      PTCLDY    28  28 100 CALM      30.18F
SALISBURY      CLOUDY    28  25  88 CALM      30.18R
OCEAN CITY     CLOUDY    31  27  85 N3        30.18S
WALLOPS ISLAND FAIR      32  23  69 MISG      30.17F
ACCOMACK*      FAIR      32  23  69 NE6       30.15S
$$

NCZ012>017-030>032-071400-
NORTH CENTRAL AND EASTERN NORTH CAROLINA

CITY           SKY/WX    TMP DP  RH WIND       PRES   REMARKS
ROANOKE RAPIDS FAIR      36  28  75 NE7       30.10F
RALEIGH        CLOUDY    37  25  61 NE7       30.10S
ELIZABETH CITY CLOUDY    42  29  59 N15       30.07F
AHOSKIE*       LGT RAIN  35  30  83 N5        30.11F
EDENTON*       CLOUDY    40  31  68 N8        30.08F
CURRITUCK*     CLOUDY   N/A N/A N/A NE15      30.10S
KILL DEVIL HLS CLOUDY    45  36  71 N10G21    30.02F
MANTEO         CLOUDY    44  37  76 NE16G25   30.04F
CAPE HATTERAS  LGT RAIN  46  42  86 NE14G28   29.95F
TARBORO*       LGT RAIN  36  32  88 NE7       30.11F
GOLDSBORO      CLOUDY    36  36 100 NE10      30.05S
WASHINGTON     LGT RAIN  35  31  83 CALM      30.07F
GREENVILLE     LGT RAIN  34  32  93 N9        30.09F
NEW BERN       RAIN      36  30  79 N16       30.03F
WILMINGTON     RAIN      37  33  85 N17G26    29.97F
$$

VAZ048-071400-
ELSEWHERE

CITY           SKY/WX    TMP DP  RH WIND       PRES   REMARKS
HARRISBURG PA  PTCLDY    25  21  85 NW5       30.17F
BALTIMORE      CLOUDY    24  22  91 CALM      30.18S
ANNAPOLIS      CLOUDY    30  27  88 CALM      30.19S
ANDREWS AFB    FAIR      28  24  85 NW2       30.18S
PHILADELPHIA   PTCLDY    30  24  78 CALM      30.20S
HENDERSON NC   CLOUDY    34  26  72 N5        30.10F
GREENSBORO     CLOUDY    34  17  50 N7        30.08S
ROCKY MOUNT    LGT RAIN  35  30  82 NE9       30.10F
$$

VAZ100-071400-
MARINE

STATION/POSITION TIME  TEMP    WIND        PRES    WAVE   SWELL
                       AIR SEA DIR/SP/G            HT/PER HT/PER
                 (UTC) (F)     (DEG/KT/KT) (MB)    (FT/S) (FT/S)
BRANDYWINE LGT   1200   36     350/  4/  4 1022.7R
CAPE MAY NJ      1200   34 42   20/  2/  2 1022.6R
LEWES DE         1200   37 42  340/  3/  4 1022.6R
15NM E FENWICK I 1250   41 45              1021.8F   2/11
OCEAN-CITY-INLET 1200   35 41  360/  6/  7 1021.0F
WACHAPREAGUE VA  1200   34 43  360/  5/  7 1021.1F
THOMAS POINT MD  1200   33     330/  4       N/A
GOOSES REEF MD   1300   37 39   10/  4/  6 1023.1F   0
COVE POINT MD    1200   35     350/  3/  5 1022.7R
SOLOMONS ISLAND  1200   34 41  340/  4/  4   N/A
BISHOPS HEAD MD  1200   35 41  350/  3/  5 1021.0F
POTOMAC MD       1300   36 40   20/  8/ 10 1020.2F   0
CAMBRIDGE MD     1200   33 40   CALM  /  1 1021.5R
LEWISETTA VA     1200   34 42   CALM  /  1 1021.4F
RAPPAHANNOCK LGT 1200           30/ 12/ 13 1021.2F
STINGRAY PT      1300   39 42   40/ 12/ 14 1021.1F   1/ 2
YORK RVR RNG VA  1200   39      30/ 11/ 13 1020.0F
YORKTOWN VA      1200   36 43   20/  7/  8 1020.7F
JAMESTOWN VA     1300   35 45   20/  4/  8   N/A
DOMINION TERM VA 1200   37      20/  3/  6 1020.7F
KIPTOPEKE VA     1200      42   30/  5/  7   N/A
CHES BAY BRIDGE  1200   40 43   20/ 14/ 16 1019.8F
CAPE HENRY VA    1200   41      30/ 17/ 20   N/A
CHESAPEAKE LGHT  1200   42      40/ 20/ 23 1020.1F
WILLOUBY STN VA  1200   40      40/ 15/ 17 1027.5S
CAPE HENRY BUOY  1228      46                N/A     4/10   2/11
1ST LANDING BUOY 1300      43                N/A     2/ 3
CAPE CHARLES BUO 1226      45                N/A     4/11   2/11
OFFSHORE WE BUOY 1221      49                N/A     5/11   3/11
64NM E OF VA BCH 1250   49 54   40/ 21/ 25 1017.0F   6/11   3/11
DUCK PIER NC     1200   44 44   30/ 24/ 26 1017.7F
44100 DUCK FRF   1224      47                N/A     6/ 5   2/12
44056 DUCK FRF   1211      44                N/A     5/ 5   2/11
OREGON INLET NC  1200   45 46   20/ 17/ 25 1017.0F
HATTERAS NC      1200   46 48   20/ 23/ 32 1014.7F
DIAMOND SHLS NC  1250   55 70   30/ 31/ 39 1012.2F  10/ 7   3/11
$$




USA.gov is the U.S. government's official web portal to all federal, state and local government web resources and services.